Time,TemperatureF,DewpointF,PressureIn,WindDirection,WindDirectionDegrees,WindSpeedMPH,WindSpeedGustMPH,Humidity,HourlyPrecipIn,Conditions,Clouds,dailyrainin,SolarRadiationWatts/m^2,SoftwareType,DateUTC
2013-04-16 00:00:00,55.0,53.0,-100.00,SE,135,0.0,-999.0,92,-99.99,,,-99.99,0.000000,,2013-04-16 04:00:00,
2013-04-16 00:42:00,55.0,53.0,-100.00,SE,135,0.0,-999.0,92,-99.99,,,-99.99,0.000000,,2013-04-16 04:42:00,
2013-04-16 00:53:00,55.0,53.0,-100.00,SE,135,0.0,-999.0,92,-99.99,,,-99.99,0.000000,,2013-04-16 04:53:00,
2013-04-16 01:00:00,57.0,51.0,-100.00,South,180,2.0,-999.0,80,-99.99,,,-99.99,0.000000,,2013-04-16 05:00:00,
2013-04-16 01:42:00,57.0,51.0,-100.00,South,180,2.0,-999.0,80,-99.99,,,-99.99,0.000000,,2013-04-16 05:42:00,
2013-04-16 01:52:00,57.0,51.0,-100.00,South,180,2.0,-999.0,80,-99.99,,,-99.99,0.000000,,2013-04-16 05:52:00,
2013-04-16 02:00:00,60.0,50.0,-100.00,SSW,202,7.0,-999.0,69,-99.99,,,-99.99,0.000000,,2013-04-16 06:00:00,
2013-04-16 02:42:00,60.0,50.0,-100.00,SSW,202,7.0,-999.0,69,-99.99,,,-99.99,0.000000,,2013-04-16 06:42:00,
2013-04-16 02:52:00,60.0,50.0,-100.00,SSW,202,7.0,-999.0,69,-99.99,,,-99.99,0.000000,,2013-04-16 06:52:00,
2013-04-16 03:00:00,59.0,50.0,-100.00,SSW,202,7.0,-999.0,70,-99.99,,,-99.99,0.000000,,2013-04-16 07:00:00,
2013-04-16 03:42:00,59.0,50.0,-100.00,SSW,202,7.0,-999.0,70,-99.99,,,-99.99,0.000000,,2013-04-16 07:42:00,
2013-04-16 03:53:00,59.0,50.0,-100.00,SSW,202,7.0,-999.0,70,-99.99,,,-99.99,0.000000,,2013-04-16 07:53:00,
2013-04-16 05:00:00,48.0,45.0,-100.00,WNW,292,5.0,-999.0,89,-99.99,,,-99.99,0.000000,,2013-04-16 09:00:00,
2013-04-16 05:43:00,48.0,45.0,-100.00,WNW,292,5.0,-999.0,89,-99.99,,,-99.99,0.000000,,2013-04-16 09:43:00,
2013-04-16 05:53:00,48.0,45.0,-100.00,WNW,292,5.0,-999.0,89,-99.99,,,-99.99,0.000000,,2013-04-16 09:53:00,
2013-04-16 06:00:00,47.0,45.0,-100.00,WNW,292,1.0,-999.0,91,-99.99,,,-99.99,0.000000,,2013-04-16 10:00:00,
2013-04-16 06:43:00,47.0,45.0,-100.00,WNW,292,1.0,-999.0,91,-99.99,,,-99.99,0.000000,,2013-04-16 10:43:00,
2013-04-16 06:53:00,47.0,45.0,-100.00,WNW,292,1.0,-999.0,91,-99.99,,,-99.99,0.000000,,2013-04-16 10:53:00,
2013-04-16 07:00:00,47.0,44.0,-100.00,West,270,1.0,-999.0,90,-99.99,,,-99.99,0.000000,,2013-04-16 11:00:00,
2013-04-16 07:42:00,47.0,44.0,-100.00,West,270,1.0,-999.0,90,-99.99,,,-99.99,0.000000,,2013-04-16 11:42:00,
2013-04-16 07:53:00,47.0,44.0,-100.00,West,270,1.0,-999.0,90,-99.99,,,-99.99,0.000000,,2013-04-16 11:53:00,
2013-04-16 08:00:00,47.0,44.0,-100.00,WNW,292,1.0,-999.0,90,-99.99,,,-99.99,3.480000,,2013-04-16 12:00:00,
2013-04-16 08:42:00,47.0,44.0,-100.00,WNW,292,1.0,-999.0,90,-99.99,,,-99.99,3.480000,,2013-04-16 12:42:00,
2013-04-16 08:52:00,47.0,44.0,-100.00,WNW,292,1.0,-999.0,90,-99.99,,,-99.99,3.480000,,2013-04-16 12:52:00,
2013-04-16 09:00:00,46.0,44.0,-100.00,NW,315,4.0,-999.0,90,-99.99,,,-99.99,18.559999,,2013-04-16 13:00:00,
2013-04-16 09:42:00,46.0,44.0,-100.00,NW,315,4.0,-999.0,90,-99.99,,,-99.99,18.559999,,2013-04-16 13:42:00,
2013-04-16 09:52:00,46.0,44.0,-100.00,NW,315,4.0,-999.0,90,-99.99,,,-99.99,18.559999,,2013-04-16 13:52:00,
2013-04-16 10:00:00,45.0,43.0,-100.00,NW,315,4.0,-999.0,90,-99.99,,,-99.99,71.919998,,2013-04-16 14:00:00,
2013-04-16 10:42:00,45.0,43.0,-100.00,NW,315,4.0,-999.0,90,-99.99,,,-99.99,71.919998,,2013-04-16 14:42:00,
2013-04-16 10:52:00,45.0,43.0,-100.00,NW,315,4.0,-999.0,90,-99.99,,,-99.99,71.919998,,2013-04-16 14:52:00,
2013-04-16 11:00:00,47.0,41.0,-100.00,WNW,292,3.0,-999.0,82,-99.99,,,-99.99,185.600006,,2013-04-16 15:00:00,
2013-04-16 11:43:00,47.0,41.0,-100.00,WNW,292,3.0,-999.0,82,-99.99,,,-99.99,185.600006,,2013-04-16 15:43:00,
2013-04-16 11:53:00,47.0,41.0,-100.00,WNW,292,3.0,-999.0,82,-99.99,,,-99.99,185.600006,,2013-04-16 15:53:00,
2013-04-16 12:00:00,47.0,40.0,-100.00,West,270,5.0,-999.0,74,-99.99,,,-99.99,220.399994,,2013-04-16 16:00:00,
2013-04-16 12:42:00,47.0,40.0,-100.00,West,270,5.0,-999.0,74,-99.99,,,-99.99,220.399994,,2013-04-16 16:42:00,
2013-04-16 12:53:00,47.0,40.0,-100.00,West,270,5.0,-999.0,74,-99.99,,,-99.99,220.399994,,2013-04-16 16:53:00,
2013-04-16 13:00:00,51.0,39.0,-100.00,WNW,292,6.0,-999.0,64,-99.99,,,-99.99,622.919983,,2013-04-16 17:00:00,
2013-04-16 13:43:00,51.0,39.0,-100.00,WNW,292,6.0,-999.0,64,-99.99,,,-99.99,622.919983,,2013-04-16 17:43:00,
2013-04-16 13:53:00,51.0,39.0,-100.00,WNW,292,6.0,-999.0,64,-99.99,,,-99.99,622.919983,,2013-04-16 17:53:00,
2013-04-16 14:00:00,53.0,38.0,-100.00,WNW,292,7.0,-999.0,55,-99.99,,,-99.99,750.520020,,2013-04-16 18:00:00,
2013-04-16 14:43:00,53.0,38.0,-100.00,WNW,292,7.0,-999.0,55,-99.99,,,-99.99,750.520020,,2013-04-16 18:43:00,
2013-04-16 14:52:00,53.0,38.0,-100.00,WNW,292,7.0,-999.0,55,-99.99,,,-99.99,750.520020,,2013-04-16 18:52:00,
2013-04-16 15:00:00,56.0,36.0,-100.00,West,270,8.0,-999.0,47,-99.99,,,-99.99,744.719971,,2013-04-16 19:00:00,
2013-04-16 15:43:00,56.0,36.0,-100.00,West,270,8.0,-999.0,47,-99.99,,,-99.99,744.719971,,2013-04-16 19:43:00,
2013-04-16 15:52:00,56.0,36.0,-100.00,West,270,8.0,-999.0,47,-99.99,,,-99.99,744.719971,,2013-04-16 19:52:00,
2013-04-16 16:00:00,57.0,35.0,-100.00,WNW,292,8.0,-999.0,43,-99.99,,,-99.99,625.239990,,2013-04-16 20:00:00,
2013-04-16 16:42:00,57.0,35.0,-100.00,WNW,292,8.0,-999.0,43,-99.99,,,-99.99,625.239990,,2013-04-16 20:42:00,
2013-04-16 16:52:00,57.0,35.0,-100.00,WNW,292,8.0,-999.0,43,-99.99,,,-99.99,625.239990,,2013-04-16 20:52:00,
2013-04-16 17:00:00,56.0,35.0,-100.00,West,270,6.0,-999.0,43,-99.99,,,-99.99,365.399994,,2013-04-16 21:00:00,
2013-04-16 17:43:00,56.0,35.0,-100.00,West,270,6.0,-999.0,43,-99.99,,,-99.99,365.399994,,2013-04-16 21:43:00,
2013-04-16 17:53:00,56.0,35.0,-100.00,West,270,6.0,-999.0,43,-99.99,,,-99.99,365.399994,,2013-04-16 21:53:00,
2013-04-16 18:00:00,56.0,30.0,-100.00,West,270,5.0,-999.0,35,-99.99,,,-99.99,291.160004,,2013-04-16 22:00:00,
2013-04-16 18:43:00,56.0,30.0,-100.00,West,270,5.0,-999.0,35,-99.99,,,-99.99,291.160004,,2013-04-16 22:43:00,
2013-04-16 18:52:00,56.0,30.0,-100.00,West,270,5.0,-999.0,35,-99.99,,,-99.99,291.160004,,2013-04-16 22:52:00,
2013-04-16 19:00:00,56.0,29.0,-100.00,WNW,292,2.0,-999.0,35,-99.99,,,-99.99,168.199997,,2013-04-16 23:00:00,
2013-04-16 19:43:00,56.0,29.0,-100.00,WNW,292,2.0,-999.0,35,-99.99,,,-99.99,168.199997,,2013-04-16 23:43:00,
2013-04-16 19:52:00,56.0,29.0,-100.00,WNW,292,2.0,-999.0,35,-99.99,,,-99.99,168.199997,,2013-04-16 23:52:00,
2013-04-16 20:00:00,55.0,28.0,-100.00,West,270,5.0,-999.0,35,-99.99,,,-99.99,109.040001,,2013-04-17 00:00:00,
2013-04-16 20:42:00,55.0,28.0,-100.00,West,270,5.0,-999.0,35,-99.99,,,-99.99,109.040001,,2013-04-17 00:42:00,
2013-04-16 20:52:00,55.0,28.0,-100.00,West,270,5.0,-999.0,35,-99.99,,,-99.99,109.040001,,2013-04-17 00:52:00,
2013-04-16 21:00:00,52.0,31.0,-100.00,WNW,292,2.0,-999.0,45,-99.99,,,-99.99,5.800000,,2013-04-17 01:00:00,
2013-04-16 21:42:00,52.0,31.0,-100.00,WNW,292,2.0,-999.0,45,-99.99,,,-99.99,5.800000,,2013-04-17 01:42:00,
2013-04-16 21:52:00,52.0,31.0,-100.00,WNW,292,2.0,-999.0,45,-99.99,,,-99.99,5.800000,,2013-04-17 01:52:00,
2013-04-16 22:00:00,48.0,32.0,-100.00,West,270,0.0,-999.0,54,-99.99,,,-99.99,0.000000,,2013-04-17 02:00:00,
2013-04-16 22:42:00,48.0,32.0,-100.00,West,270,0.0,-999.0,54,-99.99,,,-99.99,0.000000,,2013-04-17 02:42:00,
2013-04-16 22:52:00,48.0,32.0,-100.00,West,270,0.0,-999.0,54,-99.99,,,-99.99,0.000000,,2013-04-17 02:52:00,
2013-04-16 23:00:00,46.0,33.0,-100.00,SSW,202,0.0,-999.0,59,-99.99,,,-99.99,0.000000,,2013-04-17 03:00:00,
2013-04-16 23:43:00,46.0,33.0,-100.00,SSW,202,0.0,-999.0,59,-99.99,,,-99.99,0.000000,,2013-04-17 03:43:00,
2013-04-16 23:53:00,46.0,33.0,-100.00,SSW,202,0.0,-999.0,59,-99.99,,,-99.99,0.000000,,2013-04-17 03:53:00,